Scottsbluff, NE

1:00 PM MDT on June 28, 2017 (GMT -0600)
Heilig

Weather History for KBFF - January, 2011

Change the Weather History Date:

Sunday, January 2, 2011

  Actual Average Record
Temperature  
Mean Temperature 16 °F 26 °F  
Max Temperature 32 °F 40 °F 70 °F (1997)
Min Temperature -1 °F 13 °F -26 °F (1942)
Degree Days  
Heating Degree Days 49 39  
Month to date heating degree days 104 78  
Since 1 July heating degree days 2501 2850  
Cooling Degree Days 0 0  
Month to date cooling degree days 0 0  
Year to date cooling degree days 0 0  
Moisture  
Dew Point 7 °F    
Average Humidity 61    
Maximum Humidity 80    
Minimum Humidity 42    
Precipitation  
Precipitation 0.00 in 0.02 in 0.65 in (1907)
Month to date precipitation 0.00 0.03  
Year to date precipitation 0.00 0.03  
Snow  
Snow 0.00 in 0.20 in 4.00 in (1907)
Month to date snowfall 0.0 0.4  
Since 1 July snowfall 17.6 16.4  
Snow Depth 8.00 in    
Sea Level Pressure  
Sea Level Pressure 30.08 in    
Wind  
Wind Speed 9 mph (NW)    
Max Wind Speed 25 mph    
Max Gust Speed 32 mph    
Visibility 10 miles    
Events      
T = Trace of Precipitation, MM = Missing Value Source: NWS Daily Summary

Daily Weather History Graph

Daily Weather History Graph

Search for Another Location

Airport or City:

Trip Planner

Search our weather history database for the weather conditions in past years. The results will help you decide how hot, cold, wet, or windy it might be!

Date:

Astronomy

Jan. 02, 2011 Rise Set
Actual Time 7:22 AM MST 4:34 PM MST
Civil Twilight 6:50 AM MST 5:06 PM MST
Nautical Twilight 6:15 AM MST 5:41 PM MST
Astronomical Twilight 5:41 AM MST 6:15 PM MST
Moon 5:58 AM MST (1/2) 3:07 PM MST (1/2)
Length of Visible Light 10h 15m
Length of Day
9h 12m
Waning Crescent, 3% of the Moon is Illuminated
Jan 2
Waning Crescent
Jan 4
New
Jan 12
First Quarter
Jan 19
Full
Jan 26
Last Quarter

Hourly Weather History & Observations

Time (MST) Temp. Windchill Dew Point Humidity Pressure Visibility Wind Dir Wind Speed Gust Speed Precip Events Conditions
12:53 AM 1.9 °F -9.2 °F -5.1 °F 72% 30.13 in 10.0 mi North 5.8 mph - N/A   Clear
1:53 AM 1.0 °F -8.7 °F -6.0 °F 72% 30.14 in 10.0 mi North 4.6 mph - N/A   Clear
2:53 AM 1.4 °F -6.2 °F -5.8 °F 72% 29.93 in 10.0 mi NE 3.5 mph - N/A   Clear
3:53 AM 6.1 °F - -2.9 °F 67% 30.10 in 10.0 mi Calm Calm - N/A   Clear
4:53 AM 12.0 °F 0.5 °F 1.0 °F 61% 30.09 in 10.0 mi West 8.1 mph - N/A   Clear
5:53 AM 21.9 °F 9.8 °F 6.1 °F 51% 30.08 in 10.0 mi West 12.7 mph - N/A   Clear
6:53 AM 21.0 °F 12.4 °F 7.0 °F 55% 30.11 in 10.0 mi WNW 6.9 mph - N/A   Clear
7:53 AM 24.8 °F 13.4 °F 6.8 °F 46% 29.95 in 10.0 mi West 12.7 mph - N/A   Clear
8:53 AM 23.0 °F 12.4 °F 7.0 °F 50% 30.14 in 10.0 mi West 10.4 mph - N/A   Clear
9:53 AM 26.1 °F 13.1 °F 7.0 °F 44% 30.15 in 10.0 mi West 17.3 mph 26.5 mph N/A   Clear
10:53 AM 28.0 °F 15.3 °F 10.0 °F 47% 30.16 in 10.0 mi West 18.4 mph 26.5 mph N/A   Clear
11:53 AM 30.0 °F 18.3 °F 12.0 °F 47% 30.12 in 10.0 mi WNW 17.3 mph 26.5 mph N/A   Clear
12:53 PM 30.2 °F 18.9 °F 12.2 °F 47% 29.95 in 10.0 mi WNW 16.1 mph 27.6 mph N/A   Clear
1:53 PM 32.0 °F 21.2 °F 14.0 °F 48% 30.10 in 10.0 mi WNW 16.1 mph 25.3 mph N/A   Clear
2:53 PM 30.9 °F 19.1 °F 15.1 °F 52% 30.09 in 10.0 mi NW 18.4 mph 26.5 mph N/A   Clear
3:53 PM 30.0 °F 18.3 °F 12.9 °F 49% 30.08 in 10.0 mi WNW 17.3 mph 23.0 mph N/A   Clear
4:53 PM 25.0 °F 16.3 °F 12.9 °F 60% 30.09 in 10.0 mi WNW 8.1 mph - N/A   Clear
5:53 PM 24.1 °F - 12.9 °F 62% 30.08 in 10.0 mi Calm Calm - N/A   Clear
6:53 PM 16.0 °F 10.4 °F 10.0 °F 77% 30.11 in 10.0 mi ENE 3.5 mph - N/A   Clear
7:53 PM 17.1 °F - 10.0 °F 74% 30.09 in 10.0 mi Calm Calm - N/A   Clear
8:53 PM 21.0 °F 14.6 °F 12.0 °F 68% 30.08 in 10.0 mi West 4.6 mph - N/A   Clear
9:53 PM 12.9 °F 6.9 °F 7.0 °F 77% 30.09 in 10.0 mi ENE 3.5 mph - N/A   Scattered Clouds
10:53 PM 15.1 °F 9.4 °F 9.0 °F 77% 30.08 in 10.0 mi East 3.5 mph - N/A   Scattered Clouds
11:53 PM 16.0 °F 10.4 °F 10.9 °F 81% 30.07 in 10.0 mi NE 3.5 mph - N/A   Overcast